Regional Weather Roundup
Issued by NWS

Home | Current Version | Previous Version | Text Only | Print | Product List | Glossary Off
Versions: 1 2 3 4 5 6 7 8 9 10 11 12 13 14 15 16 17 18 19 20 21 22 23 24 25 26 27 28 29 30 31 32 33 34 35 36 37 38 39 40 41 42 43 44 45 46 47 48 49 50

000
ASUS43 KDMX 200907
RWRIA

WEATHER ROUNDUP FOR IOWA
NATIONAL WEATHER SERVICE DES MOINES IA
400 AM CDT WED AUG 20 2014

NOTE: "FAIR" INDICATES FEW OR NO CLOUDS BELOW 12,000 FEET WITH NO
SIGNIFICANT WEATHER AND/OR OBSTRUCTIONS TO VISIBILITY.

* - THESE STATIONS ARE NOT NWS STATIONS...THUS NOT UNDER NWS
QUALITY CONTROL.  THEY ALSO DO NOT REPORT WEATHER SUCH
AS PRECIPITATION OR FOG.

IAZ001>003-012>014-020>022-031>034-043>046-201000-
   NORTHWEST IOWA

CITY           SKY/WX    TMP DP  RH WIND       PRES   REMARKS
CARROLL *      MOCLDY    63  63 100 CALM      29.82S
CHEROKEE *     PTCLDY    64  64 100 CALM      29.81S
DENISON *      PTCLDY    70  66  88 E5G13     29.78F
LE MARS *      LGT RAIN  68  66  94 VRB5      29.80S
ORANGE CITY *  CLEAR     68  61  77 E3        29.80F
SHELDON *      CLEAR     61  61 100 SE5       29.80S
SIOUX CITY     CLOUDY    68  65  90 NE7       29.76F
SPENCER        PTCLDY    61  59  93 CALM      29.81S
STORM LAKE *   CLEAR     64  64 100 SE7       29.83R
$$

IAZ055>058-069>071-079>083-090>094-201000-
   SOUTHWEST IOWA

CITY           SKY/WX    TMP DP  RH WIND       PRES   REMARKS
ATLANTIC *     CLOUDY    70  68  94 NE5       29.82R
AUDUBON *      RAIN      72  70  94 CALM      29.84R
CLARINDA *     PTCLDY    70  70 100 CALM      29.79F
COUNCIL BLFS * MOCLDY    72  70  94 SE10      29.76F
CRESTON *      MOCLDY    70  68  94 SE6       29.81S
HARLAN  *      CLOUDY    72  68  88 E8        29.83F
LAMONI         MOCLDY    72  67  84 SE6       29.81F
RED OAK *      PTCLDY    70  68  94 CALM      29.78F
SHENANDOAH *   PTCLDY    73  70  88 VRB3      29.78F
$$

IAZ047>049-059>061-072>074-084-201000-
   CENTRAL IOWA

CITY           SKY/WX    TMP DP  RH WIND       PRES   REMARKS
AMES           PTCLDY    64  63  96 CALM      29.81F
ANKENY *       PTCLDY    66  66 100 CALM      29.80F
CHARITON *     PTCLDY    70  66  88 SE6       29.82S
DES MOINES     MOCLDY    74  65  73 SE6       29.80F
GRINNELL*      PTCLDY    63  61  94 CALM      29.83F
KNOXVILLE *    MOCLDY    68  64  88 SE3       29.81F
MARSHALLTOWN   CLEAR     62  60  93 S5        29.82F
PELLA *        CLEAR     66  66 100 CALM      29.83F FOG
PERRY *        MOCLDY    66  64  94 CALM      29.82R
$$

IAZ004>006-015-016-023>025-035-036-201000-
   NORTH CENTRAL IOWA

CITY           SKY/WX    TMP DP  RH WIND       PRES   REMARKS
ALGONA *       CLEAR     63  63 100 NE5       29.83R
CLARION *      CLEAR     63  63 100 E5        29.82F
ESTHERVILLE    CLEAR     59  59 100 NE3       29.82R FOG
FORT DODGE *   CLEAR     63  61  94 CALM      29.83S
MASON CITY     CLEAR     64  62  93 CALM      29.84S
FOREST CITY *  CLEAR     61  61 100 CALM      29.83S
IOWA FALLS *     N/A     63  59  88 CALM      29.84S
$$

IAZ007>011-017>019-026>030-037>042-050>054-066-201000-
   NORTHEAST IOWA

CITY           SKY/WX    TMP DP  RH WIND       PRES   REMARKS
CEDAR RAPIDS   CLEAR     61  61 100 S3        29.81F
CHARLES CITY * CLEAR     63  61  94 CALM      29.84S
CLINTON *      CLEAR     63  61  94 W3        29.85F
DECORAH *      MOCLDY    64  63  94 CALM      29.82S
DUBUQUE        CLEAR     62  60  93 SW5       29.84S
MONTICELLO *   CLEAR     59  59 100 CALM      29.83S
OELWEIN *      CLEAR     64  63  94 W6        29.84F
WATERLOO       CLEAR     63  61  93 NE5       29.81F
$$

IAZ064-065-067-068-078-201000-
   EAST CENTRAL IOWA

CITY           SKY/WX    TMP DP  RH WIND       PRES   REMARKS
DAVENPORT      CLEAR     60  57  89 CALM      29.84S
IOWA CITY      CLEAR     63  62  97 CALM      29.83F
MT. PLEASANT * CLEAR     63  63 100 SW5       29.85R FOG
MUSCATINE *    CLEAR     63  59  88 CALM      29.83S FOG
QUAD CITIES    CLEAR     64  62  93 CALM      29.82F
$$

IAZ062-063-075>077-085>089-095>099-201000-
   SOUTHEAST IOWA

CITY           SKY/WX    TMP DP  RH WIND       PRES   REMARKS
BURLINGTON     CLEAR     66  64  93 CALM      29.84S
FAIRFIELD *    MOCLDY    66  64  94 S6        29.85R
FORT MADISON * CLEAR     68  68 100 CALM      29.87R
KEOKUK *       CLOUDY    70  68  94 SW6       29.86R
OSKALOOSA *      N/A     64  64 100 SE5       29.83F
CENTERVILLE *  PTCLDY    66  66 100 E5        29.84F
OTTUMWA        MOCLDY    67  65  93 SE3       29.82F
WASHINGTON *   FOG       61  61 100 S6        29.84S VSB 1/4
$$

ABBREVIATIONS USED IN REMARKS
   TC - TEMPERATURES IN CELSIUS
  WCI - WIND CHILL INDEX
   HX - HEAT INDEX
  VSB - VISIBILITY
$$




USA.gov is the U.S. government's official web portal to all federal, state and local government web resources and services.